User: anonymous
Location: Fort Wayne
(41.1310°N, 85.1290°W)
Time: 03:20:44
(UTC-04:00)
Language:

Cosmos 2219 Rocket - Orbit

View from above orbital plane
View from above orbital plane
View from above satellite
View from above satellite

Ground track
Ground track

The orbit data is extracted from the following two-line orbital elements,

1 22220U 92076B   14107.93564390 -.00000226  00000-0 -89653-4 0  2871
2 22220 071.0013 332.8935 0014679 240.8019 212.5216 14.16306938107059
Epoch (UTC): 17 April 2014 22:27:19
Eccentricity: 0.0014679
inclination: 71.0013°
perigee height: 827 km
apogee height: 848 km
right ascension of ascending node: 332.8935°
argument of perigee: 240.8019°
revolutions per day: 14.16306938
mean anomaly at epoch: 212.5216°
orbit number at epoch: 10705

The dashed part of the orbit path shows where the satellite is in the earth's shadow,  

DLR